| time (UTC) | temp C | wind direction | speed KPH | gust KPH | rain 1hr cm | rain 24hr cm | rain mn cm | humidity % | barometer mb |
| 20260508090549 | 10 | 66 | 4.8 | 4.8 | 0.18 | 0.99 | 0.94 | 96 | 1009.7 |
| 20260508083633 | 10 | 67 | 3.2 | 4.8 | 0.15 | 0.89 | 0.84 | 96 | 1009.5 |
| 20260508083601 | 10 | 67 | 3.2 | 4.8 | 0.15 | 0.89 | 0.84 | 96 | 1009.5 |
| 20260508080550 | 10 | 68 | 0.0 | 1.6 | 0.05 | 0.79 | 0.76 | 96 | 1009.5 |
| 20260508073630 | 10 | 23 | 3.2 | 4.8 | 0.13 | 0.74 | 0.71 | 97 | 1009.0 |
| 20260508073549 | 10 | 23 | 3.2 | 4.8 | 0.13 | 0.74 | 0.71 | 97 | 1009.0 |
| 20260508072049 | 10 | 25 | 4.8 | 4.8 | 0.23 | 0.74 | 0.71 | 97 | 1008.7 |
| 20260508063627 | 9 | 49 | 3.2 | 4.8 | 0.28 | 0.61 | 0.58 | 96 | 1008.9 |
| 20260508063548 | 9 | 49 | 3.2 | 4.8 | 0.28 | 0.61 | 0.58 | 96 | 1008.9 |
| 20260508060550 | 10 | 87 | 4.8 | 4.8 | 0.43 | 0.48 | 0.43 | 97 | 1008.6 |
| 20260508055050 | 9 | 113 | 3.2 | 4.8 | 0.41 | 0.43 | 0.41 | 97 | 1008.5 |
| 20260508053831 | 9 | 208 | 3.2 | 4.8 | 0.30 | 0.33 | 0.30 | 97 | 1008.7 |
| 20260508053548 | 9 | 208 | 3.2 | 4.8 | 0.30 | 0.33 | 0.30 | 97 | 1008.7 |
| 20260508045122 | 9 | 0 | 0.0 | 1.6 | 0.00 | 0.05 | 0.00 | 96 | 1007.7 |
| 20260508045050 | 9 | 0 | 0.0 | 1.6 | 0.00 | 0.05 | 0.00 | 96 | 1007.7 |
| 20260508043624 | 9 | 359 | 3.2 | 4.8 | 0.00 | 0.05 | 0.00 | 96 | 1007.4 |
| 20260508043548 | 9 | 359 | 3.2 | 4.8 | 0.00 | 0.05 | 0.00 | 96 | 1007.4 |
| 20260508042050 | 10 | 353 | 4.8 | 8.0 | 0.00 | 0.05 | 0.00 | 96 | 1007.3 |
| 20260508040548 | 9 | 1 | 4.8 | 4.8 | 0.00 | 0.05 | 0.00 | 96 | 1007.5 |
| 20260508033549 | 9 | 30 | 4.8 | 4.8 | 0.00 | 0.05 | 0.00 | 97 | 1007.7 |
| 20260508032052 | 9 | 30 | 0.0 | 1.6 | 0.00 | 0.05 | 0.00 | 96 | 1007.9 |
| 20260508030549 | 8 | 30 | 0.0 | 1.6 | 0.00 | 0.05 | 0.00 | 96 | 1007.9 |
| 20260508025122 | 8 | 30 | 0.0 | 0.0 | 0.00 | 0.05 | 0.00 | 96 | 1007.9 |
| 20260508025049 | 8 | 30 | 0.0 | 0.0 | 0.00 | 0.05 | 0.00 | 96 | 1007.9 |
| 20260508022131 | 9 | 30 | 3.2 | 4.8 | 0.00 | 0.05 | 0.00 | 95 | 1008.0 |
| 20260508022048 | 9 | 30 | 3.2 | 4.8 | 0.00 | 0.05 | 0.00 | 95 | 1008.0 |
| 20260508015124 | 9 | 30 | 1.6 | 3.2 | 0.00 | 0.05 | 0.00 | 94 | 1008.3 |
| 20260508015050 | 9 | 30 | 1.6 | 3.2 | 0.00 | 0.05 | 0.00 | 94 | 1008.3 |
| 20260508013549 | 10 | 30 | 3.2 | 4.8 | 0.00 | 0.05 | 0.00 | 95 | 1008.6 |
| 20260508003549 | 10 | 63 | 4.8 | 8.0 | 0.00 | 0.05 | 0.00 | 94 | 1009.6 |
| 20260508002133 | 10 | 67 | 4.8 | 4.8 | 0.00 | 0.05 | 0.00 | 95 | 1009.6 |
| 20260508002049 | 10 | 67 | 4.8 | 4.8 | 0.00 | 0.05 | 0.00 | 95 | 1009.6 |
| 20260508000550 | 10 | 5 | 3.2 | 4.8 | 0.00 | 0.05 | 0.00 | 95 | 1009.8 |
| 20260507235124 | 10 | 5 | 3.2 | 4.8 | 0.00 | 0.05 | 0.00 | 95 | 1009.9 |
| 20260507235051 | 10 | 5 | 3.2 | 4.8 | 0.00 | 0.05 | 0.00 | 95 | 1009.9 |
| 20260507233550 | 10 | 11 | 4.8 | 4.8 | 0.00 | 0.05 | 0.00 | 95 | 1010.0 |
| 20260507230549 | 10 | 5 | 3.2 | 4.8 | 0.00 | 0.05 | 0.00 | 95 | 1010.3 |
| 20260507223600 | 10 | 5 | 3.2 | 4.8 | 0.00 | 0.05 | 0.00 | 93 | 1010.2 |
| 20260507215124 | 11 | 16 | 4.8 | 8.0 | 0.05 | 0.05 | 0.05 | 91 | 1009.9 |
| 20260507215048 | 11 | 16 | 4.8 | 8.0 | 0.05 | 0.05 | 0.05 | 91 | 1009.9 |
| 20260507205101 | 11 | 352 | 1.6 | 3.2 | 0.00 | 0.00 | 0.00 | 85 | 1009.9 |
| 20260507203549 | 12 | 352 | 4.8 | 4.8 | 0.00 | 0.00 | 0.00 | 84 | 1009.7 |
| 20260507202052 | 12 | 346 | 3.2 | 4.8 | 0.00 | 0.00 | 0.00 | 79 | 1009.6 |
| 20260507200549 | 12 | 36 | 1.6 | 3.2 | 0.00 | 0.00 | 0.00 | 81 | 1009.3 |
| 20260507193551 | 12 | 25 | 3.2 | 4.8 | 0.00 | 0.00 | 0.00 | 81 | 1008.7 |
| 20260507173550 | 17 | 198 | 1.6 | 3.2 | 0.00 | 0.00 | 0.00 | 64 | 1008.3 |
| 20260507163552 | 17 | 252 | 4.8 | 9.7 | 0.00 | 0.00 | 0.00 | 63 | 1008.3 |
| 20260507152231 | 18 | 219 | 19.3 | 25.7 | 0.00 | 0.00 | 0.00 | 62 | 1007.8 |
| 20260507152051 | 18 | 219 | 19.3 | 25.7 | 0.00 | 0.00 | 0.00 | 62 | 1007.8 |
| 20260507150550 | 19 | 225 | 9.7 | 16.1 | 0.00 | 0.00 | 0.00 | 60 | 1007.7 |
| 20260507143553 | 20 | 303 | 9.7 | 19.3 | 0.00 | 0.00 | 0.00 | 65 | 1007.5 |
| 20260507142049 | 18 | 293 | 11.3 | 16.1 | 0.00 | 0.00 | 0.00 | 66 | 1007.6 |
| 20260507135050 | 19 | 190 | 9.7 | 14.5 | 0.00 | 0.00 | 0.00 | 63 | 1007.3 |
| 20260507133549 | 21 | 189 | 8.0 | 19.3 | 0.00 | 0.00 | 0.00 | 58 | 1007.2 |
| 20260507132052 | 20 | 354 | 3.2 | 8.0 | 0.00 | 0.00 | 0.00 | 61 | 1007.3 |
| 20260507125126 | 19 | 263 | 1.6 | 3.2 | 0.00 | 0.00 | 0.00 | 61 | 1007.8 |
| 20260507125052 | 19 | 263 | 1.6 | 3.2 | 0.00 | 0.00 | 0.00 | 61 | 1007.8 |
| 20260507122052 | 20 | 298 | 8.0 | 14.5 | 0.00 | 0.00 | 0.00 | 60 | 1008.2 |
| 20260507120549 | 19 | 218 | 8.0 | 9.7 | 0.00 | 0.00 | 0.00 | 60 | 1008.4 |
| 20260507102237 | 15 | 57 | 3.2 | 4.8 | 0.00 | 0.00 | 0.00 | 77 | 1009.4 |
| 20260507102050 | 15 | 57 | 3.2 | 4.8 | 0.00 | 0.00 | 0.00 | 77 | 1009.4 |
| 20260507100551 | 15 | 217 | 1.6 | 1.6 | 0.00 | 0.00 | 0.00 | 77 | 1009.5 |
| 20260507093853 | 13 | 288 | 1.6 | 4.8 | 0.00 | 0.00 | 0.00 | 81 | 1009.7 |
| 20260507093549 | 13 | 288 | 1.6 | 4.8 | 0.00 | 0.00 | 0.00 | 81 | 1009.7 |
| 20260507092050 | 13 | 57 | 0.0 | 1.6 | 0.00 | 0.00 | 0.00 | 81 | 1009.8 |